{"data":{"norad_id":67030,"intl_designator":"2025-294A","name":"STARLINK-36138","alt_names":[],"object_type":"PAYLOAD","status":"ACTIVE","operator":null,"country":"US","launch_date":"2025-12-11","launch_site_code":"AFETR","launch_vehicle":null,"mission":null,"orbit_class":"UNKNOWN","rcs_meters":null,"size_class":null,"mass_kg":null,"dimensions":null,"purposes":["comms"],"wikipedia_slug":null,"has_3d_model":false,"image_url":null,"decayed_at":null,"tle_current":{"epoch":"2026-09-20T09:10:15.322656Z","epoch_age_seconds":91716,"freshness":"FRESH","line1":"1 67030U 25294A   26263.38212179  .00010368  00000+0  38570-3 0  9993","line2":"2 67030  43.0004  18.6637 0001250 245.2397 114.8324 15.27584612 44574","mean_motion":15.27584612,"eccentricity":0.000125,"inclination_deg":43.0004,"raan_deg":18.6637,"arg_perigee_deg":245.2397,"mean_anomaly_deg":114.8324,"bstar":0.0003857,"rev_number":4457,"period_min":94.266464108634,"perigee_km":482.17763955148,"apogee_km":483.892932623,"semimajor_km":6861.1722860872,"source":"CELESTRAK","updated_at":"2026-09-21T09:00:36.090957Z"}}}